#timestamp,LO_Frequency,Hit,StdDev 
1676484015.7,286047000.2,N
1676484035.5,286047003.1,N
1676484055.3,286047007.2,Y
1676484075.2,286047005.8,P
1676484095.0,286047004.1,N
1676484095.9,286047004.1,N
1676484115.8,286047005.5,N
1676484135.6,286047005.7,N
1676484155.4,286047003.5,N
1676484175.3,286046998.4,N
1676484195.1,286046996.6,N
1676484215.8,286046999.6,N
1676484235.7,286046998.8,N
1676484255.5,286046999.1,N
1676484275.4,286046999.9,N
1676484295.2,286047001.8,N
1676484315.0,286047004.0,N
1676484315.9,286047004.0,N
1676484335.8,286047001.3,N
1676484355.6,286047001.6,N
1676484375.4,286046999.7,N
1676484395.3,286047000.9,N
1676484415.1,286047000.8,N
1676484435.9,286047000.6,N
1676484455.7,286047000.0,N
1676484475.5,286046999.8,N
1676484495.4,286047000.1,N
1676484515.2,286047004.3,N
1676484535.0,286047004.0,N
1676484535.9,286047004.0,N
1676484555.8,286047003.4,N
1676484575.6,286047004.3,N
1676484595.5,286047000.7,N
1676484615.3,286047000.7,N
1676484635.1,286046998.4,N
1676484655.9,286047002.8,N
1676484675.7,286047000.8,N
1676484695.5,286047002.7,N
1676484715.4,286047000.2,N
1676484735.2,286047001.0,N
1676484755.0,286047000.7,N
1676484756.0,286047000.7,N
1676484775.8,286047001.6,N
1676484795.6,286047002.0,N
1676484815.5,286046999.8,N
1676484835.3,286047002.4,N
1676484855.1,286047002.5,N
1676484875.9,286047000.8,N
1676484895.7,286047000.5,N
1676484915.5,286046999.8,N
1676484935.4,286047002.7,N
1676484955.2,286047000.5,N
1676484975.1,286046998.3,N
1676484976.0,286046998.3,N
1676484995.8,286047000.0,N
1676485015.6,286046999.7,N
1676485035.5,286047002.4,N
1676485055.3,286047000.6,N
1676485075.1,286047000.0,N
1676485095.9,286047002.7,N
1676485115.7,286047003.9,N
1676485135.6,286047002.3,N
1676485155.4,286046999.7,N
1676485175.2,286046999.9,N
1676485195.1,286047001.1,N
1676485196.0,286047001.1,N
1676485215.8,286046999.9,N
1676485235.6,286047002.8,N
1676485255.5,286046997.0,N
1676485275.3,286047001.0,N
1676485295.2,286047000.1,N
1676485315.0,286047000.3,N
1676485315.9,286047000.3,N
1676485335.8,286047000.3,N
1676485355.6,286047002.7,N
1676485375.4,286046999.9,N
1676485395.3,286046998.6,N
1676485415.1,286046998.8,N
1676485435.8,286046999.6,N
1676485455.7,286046998.4,N
1676485475.5,286046999.8,N
1676485495.4,286047000.8,N
1676485515.2,286047002.5,N
1676485535.0,286047000.2,N
1676485535.9,286047000.2,N
1676485555.8,286047000.6,N
1676485575.6,286047002.4,N
1676485595.5,286047004.3,N
1676485615.3,286047002.0,N
1676485635.1,286047001.7,N
1676485655.9,286046999.3,N
1676485675.7,286046996.9,N
1676485695.5,286046996.5,N
1676485715.4,286046999.2,N
1676485735.2,286047000.2,N
1676485755.1,286047001.8,N
1676485756.0,286047001.8,N
1676485775.8,286047003.2,N
1676485795.6,286047003.4,N
1676485815.5,286047003.8,N
1676485835.3,286047006.0,Y
1676485855.1,286047003.2,P
1676485875.9,286047004.9,P
1676485895.7,286047004.8,N
1676485915.6,286047002.1,N
1676485935.4,286047004.1,N
1676485955.2,286047003.5,N
1676485975.1,286047002.7,N
1676485976.0,286047002.7,N
1676485995.8,286047002.1,N
1676486015.6,286047002.7,N
1676486035.5,286047001.6,N
1676486055.3,286047002.1,N
1676486075.2,286047002.3,N
1676486095.9,286047004.4,Y
1676486115.7,286047001.2,P
1676486135.6,286046999.4,N
1676486155.4,286046996.6,N
1676486175.2,286046997.5,N
1676486195.1,286046997.7,N
1676486196.0,286046997.7,N
1676486215.8,286046997.4,N
1676486235.7,286047001.2,N
1676486255.5,286046999.3,N
1676486275.3,286046996.9,N
1676486295.2,286046997.7,N
1676486315.0,286046997.5,N
1676486315.9,286046997.5,N
1676486335.8,286046995.3,N
1676486355.6,286046998.0,N
1676486375.4,286046995.8,N
1676486395.3,286046995.9,N
1676486415.1,286046995.6,N
1676486435.8,286046991.7,Y
1676486455.7,286046995.2,P
1676486475.5,286046996.8,N
1676486495.4,286046998.1,N
1676486515.2,286047002.4,N
1676486535.0,286046999.7,N
1676486535.9,286046999.7,N
1676486555.8,286047002.5,N
1676486575.6,286047001.1,N
1676486595.4,286047000.3,N
1676486615.3,286046999.2,N
1676486635.1,286047001.1,N
1676486655.9,286046998.5,N
1676486675.7,286046999.3,N
1676486695.5,286047001.2,N
1676486715.4,286046997.8,N
1676486735.2,286046997.4,N
1676486755.1,286046999.0,N
1676486756.0,286046999.0,N
1676486775.8,286046999.1,N
1676486795.6,286046999.0,N
1676486815.5,286047000.9,N
1676486835.3,286046998.2,N
1676486855.2,286047000.3,N
1676486875.9,286046999.1,N
1676486895.7,286046999.0,N
1676486915.6,286047000.5,N
1676486935.4,286046999.9,N
1676486955.2,286047000.7,N
1676486975.1,286046998.9,N
1676486976.0,286046998.9,N
1676486995.8,286046998.4,N
1676487015.7,286046998.8,N
1676487035.5,286047000.8,N
1676487055.3,286046999.7,N
1676487075.2,286047002.2,N
1676487095.0,286047002.4,N
1676487095.9,286047002.4,N
1676487115.8,286047001.6,N
1676487135.6,286047002.8,N
1676487155.4,286047002.4,N
1676487175.3,286047002.7,N
1676487195.1,286047000.2,N
1676487215.8,286046998.2,N
1676487235.7,286047000.6,N
1676487255.5,286047001.2,N
1676487275.4,286046999.7,N
1676487295.2,286047001.1,N
1676487315.0,286046998.9,N
1676487315.9,286046998.9,N
1676487335.8,286046998.4,N
1676487355.6,286046998.2,N
1676487375.4,286046999.3,N
1676487395.3,286046998.6,N
1676487415.1,286047000.6,N
1676487435.9,286046998.5,N
1676487455.7,286046999.7,N
1676487475.5,286047002.5,N
1676487495.4,286047002.4,N
1676487515.2,286047000.1,N
1676487535.0,286047000.1,N
1676487535.9,286047000.1,N
1676487555.8,286046995.3,Y
1676487575.6,286046996.1,P
1676487595.5,286046997.2,N
